📊 Raw Sensor Data

Showing records 42526 to 42550 of 85,001 total

ID Distance (ft) Battery V Battery A Int Temp (°F) Int Humid (%) Ext Temp (°F) Solar V RSSI SNR Time Stamp
42488 15.0 3.96 -5 66 50 66 0.00 -68 7 06/03/2025 09:15 PM
42487 15.0 3.96 -5 70 53 68 0.40 -69 8 06/03/2025 08:45 PM
42486 15.0 4.01 -9 72 54 70 1.80 -69 8 06/03/2025 08:30 PM
42485 15.0 3.96 -5 76 54 72 4.50 -68 7 06/03/2025 08:15 PM
42484 15.1 4.03 0 80 53 75 4.50 -69 8 06/03/2025 08:00 PM
42483 15.1 4.05 6 83 53 78 4.60 -69 8 06/03/2025 07:45 PM
42482 15.1 4.05 10 87 51 80 4.50 -70 8 06/03/2025 07:30 PM
42481 15.1 4.00 -15 89 51 82 4.50 -69 8 06/03/2025 07:15 PM
42480 15.1 4.02 11 90 51 83 4.60 -69 8 06/03/2025 07:00 PM
42479 15.1 4.01 0 92 51 84 5.10 -68 8 06/03/2025 06:45 PM
42478 15.1 4.01 0 93 51 84 5.10 -68 8 06/03/2025 06:30 PM
42477 15.2 4.01 0 96 50 88 5.10 -69 7 06/03/2025 06:15 PM
42476 15.2 4.01 0 97 49 90 5.10 -68 7 06/03/2025 06:00 PM
42475 15.1 4.01 0 97 49 88 5.10 -73 7 06/03/2025 05:45 PM
42474 15.1 4.01 0 98 48 87 5.10 -74 8 06/03/2025 05:30 PM
42473 15.2 4.02 0 100 46 90 5.10 -75 8 06/03/2025 05:15 PM
42472 15.1 4.01 0 99 46 92 5.10 -74 8 06/03/2025 05:00 PM
42471 15.1 4.02 0 98 46 87 5.10 -75 8 06/03/2025 04:45 PM
42470 15.1 4.01 0 99 45 88 5.10 -76 8 06/03/2025 04:30 PM
42469 15.1 4.01 0 99 44 91 5.10 -75 7 06/03/2025 04:15 PM
42468 15.1 4.01 0 99 44 90 5.10 -76 8 06/03/2025 04:00 PM
42467 15.1 4.10 0 98 43 91 5.10 -75 8 06/03/2025 03:45 PM
42466 15.1 4.01 0 99 42 89 5.10 -74 7 06/03/2025 03:30 PM
42465 15.1 4.01 0 97 42 90 5.10 -74 7 06/03/2025 03:15 PM
42464 15.1 4.03 0 95 42 88 5.10 -75 7 06/03/2025 03:00 PM